Stations météo

Publicité
St-Girons, France (7627): Température de l'air & dewpoint: 11.08.2019 17:00:00 - 17.08.2019 17:00:00 (CEST)St-Girons, France (7627): Température de l'air 5cm: 11.08.2019 17:00:00 - 17.08.2019 17:00:00 (CEST)St-Girons, France (7627): Température de l'air -20cm & Température de l'air -100cm: 11.08.2019 17:00:00 - 17.08.2019 17:00:00 (CEST)St-Girons, France (7627): Vitesse du vent & gusts: 11.08.2019 17:00:00 - 17.08.2019 17:00:00 (CEST)St-Girons, France (7627): Direction du vent: 11.08.2019 17:00:00 - 17.08.2019 17:00:00 (CEST)St-Girons, France (7627): reduced air pressure: 11.08.2019 17:00:00 - 17.08.2019 17:00:00 (CEST)St-Girons, France (7627): visibility: 11.08.2019 17:00:00 - 17.08.2019 17:00:00 (CEST)St-Girons, France (7627): Ensoleillement: 11.08.2019 17:00:00 - 17.08.2019 17:00:00 (CEST)St-Girons, France (7627): Quantités de précipitations: 11.08.2019 17:00:00 - 17.08.2019 17:00:00 (CEST)
Date & Time tt [°C] td [°C] tt 5cm [°C] tt -20cm [°C] tt -100cm [°C] ff [km/h] ff [knt] fx [km/h] fx [knt] dd ppp [hPa] vv [km] sd [min] rr [mm]
17.08.2019 17:00:00 29,0 16,2 36,2 21,3 19,8 7 4 17 9 WSW 1012,8 20 60 0,0
17.08.2019 16:00:00 28,6 16,5 37,7 21,1 19,8 6 3 14 8 WNW 1013,2 20 60 0,0
17.08.2019 15:00:00 27,6 14,6 37,2 21,0 19,8 7 4 14 7 NNW 1014,0 20 60 0,0
17.08.2019 14:00:00 27,0 15,7 34,8 20,9 19,8 6 3 22 12 N 1014,6 20 60 0,0
17.08.2019 13:00:00 26,4 15,1 34,7 20,9 19,8 5 3 14 8 NNE 1014,9 20 60 0,0
17.08.2019 12:00:00 25,3 15,9 32,5 20,9 19,8 4 2 12 7 N 1015,1 20 60 0,0
17.08.2019 11:00:00 23,3 14,3 28,0 21,0 19,8 3 2 10 5 WNW 1015,4 20 60 0,0
17.08.2019 10:00:00 21,4 13,3 19,2 21,0 19,8 7 4 16 9 ESE 1015,5 20 60 0,0
17.08.2019 09:00:00 18,4 13,3 14,2 21,1 19,8 9 5 18 10 ESE 1016,3 20 58 0,0
17.08.2019 08:00:00 13,8 12,9 10,4 21,3 19,8 2 1 10 5 SE 1017,5 20 11 0,0
17.08.2019 07:00:00 12,7 11,4 9,5 21,3 19,8 3 2 13 7 SE 1018,5 20 0 0,0
17.08.2019 06:00:00 13,1 11,8 10,3 21,4 19,8 0 0 12 7 N 1018,8 20 0 0,0
17.08.2019 05:00:00 13,4 12,5 10,9 21,5 19,8 3 1 6 4 SSE 1018,6 20 0 0,0
17.08.2019 04:00:00 13,7 12,6 10,6 21,6 19,8 0 0 5 3 N 1018,3 20 0 0,0
17.08.2019 03:00:00 15,1 13,1 11,6 21,6 19,8 3 1 6 4 SE 1017,9 20 0 0,0
17.08.2019 02:00:00 15,7 14,4 12,6 21,7 19,8 3 1 6 3 SSE 1017,9 20 0 0,0
17.08.2019 01:00:00 16,1 14,3 13,3 21,7 19,9 0 0 5 3 N 1017,3 20 0 0,0
17.08.2019 00:00:00 16,7 13,8 15,1 21,7 19,8 3 2 15 8 SW 1017,1 20 0 0,0
16.08.2019 23:00:00 18,7 14,0 17,4 21,7 19,9 11 6 25 14 SSW 1016,9 20 0 0,0
16.08.2019 22:00:00 21,0 15,5 17,7 21,6 19,9 13 7 19 11 SE 1016,3 20 0 0,0
16.08.2019 21:00:00 21,2 15,1 18,7 21,5 19,9 9 5 13 7 SE 1016,0 20 35 0,0
16.08.2019 20:00:00 24,0 15,8 26,3 21,4 19,8 6 3 7 4 SW 1015,6 20 55 0,0
16.08.2019 19:00:00 28,0 13,5 27,9 21,2 19,8 3 2 8 4 SW 1014,9 20 58 0,0
16.08.2019 18:00:00 27,6 12,4 34,7 21,0 19,9 5 3 16 9 W 1015,3 20 60 0,0
16.08.2019 17:00:00 26,8 13,9 34,8 20,8 19,9 10 5 16 9 NW 1015,7 20 60 0,0
16.08.2019 16:00:00 26,1 14,5 35,0 20,6 19,8 8 4 18 10 NNW 1015,9 20 60 0,0
16.08.2019 15:00:00 25,2 14,6 34,7 20,5 19,9 7 4 25 13 NW 1016,3 20 60 0,0
16.08.2019 14:00:00 24,8 15,1 34,7 20,4 19,9 6 3 14 7 WNW 1016,6 20 60 0,0
16.08.2019 13:00:00 24,0 14,1 31,8 20,4 19,9 4 2 14 8 ESE 1017,1 20 60 0,0
16.08.2019 12:00:00 22,6 14,2 30,8 20,3 19,9 5 3 16 8 SE 1017,8 20 60 0,0
16.08.2019 11:00:00 21,1 13,5 25,9 20,4 19,9 5 3 13 7 E 1019,0 20 60 0,0
16.08.2019 10:00:00 19,2 13,4 18,3 20,5 19,9 6 4 13 7 SE 1019,6 20 60 0,0
16.08.2019 09:00:00 17,2 12,5 16,1 20,5 19,9 5 3 14 8 SE 1020,3 20 60 0,0
16.08.2019 08:00:00 15,2 12,3 11,1 20,6 19,9 6 4 14 8 SE 1020,5 20 12 0,0
16.08.2019 07:00:00 14,1 12,8 11,0 20,6 19,9 6 3 11 6 SE 1020,4 20 0 0,0
16.08.2019 06:00:00 15,3 14,0 12,6 20,6 19,9 2 1 6 4 SE 1020,3 20 0 0,0
16.08.2019 05:00:00 16,4 14,9 15,9 20,7 19,9 3 1 6 3 ESE 1020,9 20 0 0,0
16.08.2019 04:00:00 16,1 15,1 15,8 20,7 19,9 4 2 5 3 WSW 1021,5 20 0 0,0
16.08.2019 03:00:00 16,3 15,0 16,0 20,7 19,9 0 0 6 3 N 1021,7 20 0 0,0
16.08.2019 02:00:00 16,9 14,9 16,3 20,7 19,9 2 1 4 2 SE 1022,2 20 0 0,0
16.08.2019 01:00:00 16,7 15,2 16,4 20,7 19,9 2 1 4 2 SW 1022,9 20 0 0,0
16.08.2019 00:00:00 17,1 15,1 16,6 20,7 19,9 0 0 4 2 N 1023,1 20 0 0,0
15.08.2019 23:00:00 17,4 15,0 16,9 20,7 19,9 0 0 6 3 N 1023,1 20 0 0,0
15.08.2019 22:00:00 17,9 15,0 17,1 20,7 19,9 0 0 4 2 N 1022,8 20 0 0,0
15.08.2019 21:00:00 18,3 14,8 17,6 20,7 19,9 3 2 16 9 W 1022,4 19 13 0,0
15.08.2019 20:00:00 20,7 13,4 20,5 20,7 19,9 9 5 21 11 W 1022,0 20 24 0,0
15.08.2019 19:00:00 20,2 14,1 21,5 20,7 19,9 9 5 24 13 W 1022,1 20 0 0,0
15.08.2019 18:00:00 19,9 15,1 20,7 20,6 19,9 12 7 20 11 WNW 1022,2 20 0 0,0
15.08.2019 17:00:00 19,2 14,9 19,3 20,6 19,9 8 4 24 13 WNW 1022,2 20 0 0,0
15.08.2019 16:00:00 19,0 14,7 19,7 20,6 19,9 11 6 21 12 WNW 1022,4 20 0 0,0
15.08.2019 15:00:00 18,5 14,6 19,3 20,6 19,9 10 5 34 19 W 1022,6 20 0 0,0
15.08.2019 14:00:00 18,8 15,1 18,6 20,6 20,0 17 9 27 15 WNW 1022,5 20 0 0,0
15.08.2019 13:00:00 17,3 16,3 17,1 20,6 20,0 15 8 32 18 WNW 1022,9 7 0 0,4
15.08.2019 12:00:00 17,5 16,4 18,0 20,7 20,0 11 6 22 12 WNW 1022,7 8 0 0,2
15.08.2019 11:00:00 17,5 16,4 16,8 20,7 20,0 10 5 22 12 NW 1022,4 8 0 0,4
15.08.2019 10:00:00 16,0 15,2 15,7 20,8 20,0 3 2 12 7 ENE 1022,5 2,7 0 1,0
15.08.2019 09:00:00 15,6 14,1 15,2 20,8 20,0 4 2 8 4 SSE 1022,1 5 0 0,2
15.08.2019 08:00:00 15,6 13,6 15,1 20,9 20,0 4 2 8 4 S 1021,6 16 0 0,0
15.08.2019 07:00:00 15,8 12,9 14,6 20,9 20,0 4 2 9 5 SSE 1021,4 19 0 0,0
15.08.2019 06:00:00 15,1 13,3 14,6 21,0 20,0 4 2 7 4 S 1021,4 20 0 0,0
15.08.2019 05:00:00 14,8 13,0 14,2 21,1 20,0 0 0 7 4 N 1021,2 20 0 0,0
15.08.2019 04:00:00 14,0 12,7 10,9 21,2 20,0 0 0 5 3 N 1021,5 20 0 0,0
15.08.2019 03:00:00 12,7 11,6 10,5 21,2 20,0 0 0 4 2 N 1021,6 20 0 0,0
15.08.2019 02:00:00 14,0 11,5 11,3 21,3 20,0 0 0 9 5 N 1021,5 20 0 0,0
15.08.2019 01:00:00 14,1 12,0 12,2 21,3 20,0 0 0 10 5 N 1021,8 20 0 0,0
15.08.2019 00:00:00 15,4 12,7 13,4 21,3 20,0 0 0 4 2 N 1021,7 20 0 0,0
14.08.2019 23:00:00 16,0 11,6 12,7 21,3 20,0 3 1 7 4 SSE 1021,3 16 0 0,0
14.08.2019 22:00:00 17,7 10,6 14,5 21,3 20,0 3 1 8 4 ESE 1020,7 19 0 0,0
14.08.2019 21:00:00 20,2 10,0 17,4 21,2 20,0 8 4 16 9 WNW 1019,5 20 28 0,0
14.08.2019 20:00:00 23,4 10,1 24,1 21,0 20,0 11 6 22 12 WNW 1018,6 20 58 0,0
14.08.2019 19:00:00 25,0 10,1 25,5 20,9 20,1 15 8 24 13 WNW 1018,2 20 60 0,0
14.08.2019 18:00:00 25,4 10,8 30,7 20,7 20,1 16 9 26 14 NNW 1018,0 20 60 0,0
14.08.2019 17:00:00 25,3 10,3 31,8 20,5 20,0 15 8 24 13 NW 1018,1 20 60 0,0
14.08.2019 16:00:00 24,8 9,9 31,9 20,4 20,1 18 10 31 17 NNW 1018,5 20 60 0,0
14.08.2019 15:00:00 24,6 10,8 32,6 20,2 20,0 9 5 21 11 NNW 1018,7 20 60 0,0
14.08.2019 14:00:00 23,5 11,2 32,0 20,1 20,1 5 3 14 8 N 1019,2 20 60 0,0
14.08.2019 13:00:00 21,9 10,1 33,0 20,1 20,1 5 3 11 6 NNW 1020,0 20 60 0,0
14.08.2019 12:00:00 21,2 9,4 29,2 20,1 20,1 4 2 11 6 NNE 1020,5 20 60 0,0
14.08.2019 11:00:00 19,5 9,9 24,5 20,2 20,1 6 3 13 7 SE 1021,1 20 60 0,0
14.08.2019 10:00:00 17,3 10,4 15,9 20,2 20,1 5 3 14 8 SSE 1021,4 20 60 0,0
14.08.2019 09:00:00 14,6 10,4 12,7 20,4 20,1 8 4 20 11 SE 1021,5 20 60 0,0
14.08.2019 08:00:00 12,4 9,4 9,3 20,5 20,1 9 5 26 14 SE 1021,3 20 14 0,0
14.08.2019 07:00:00 11,1 9,0 6,4 20,6 20,1 8 4 18 10 SE 1022,1 20 0 0,0
14.08.2019 06:00:00 10,2 9,4 7,8 20,7 20,1 4 2 21 11 SSW 1022,4 20 0 0,0
14.08.2019 05:00:00 11,3 9,9 7,4 20,8 20,1 15 8 22 12 SSE 1021,9 20 0 0,0
14.08.2019 04:00:00 10,3 9,5 7,9 20,8 20,1 3 1 9 5 S 1022,5 17 0 0,0
14.08.2019 03:00:00 9,9 9,0 7,2 20,9 20,1 0 0 6 3 N 1023,2 17 0 0,0
14.08.2019 02:00:00 10,6 9,8 7,9 20,9 20,2 3 1 5 3 SW 1023,7 19 0 0,0
14.08.2019 01:00:00 12,2 10,9 8,8 20,9 20,1 0 0 4 2 N 1023,4 20 0 0,0
14.08.2019 00:00:00 13,5 12,2 12,4 21,0 20,1 2 1 5 3 W 1023,8 20 0 0,0
13.08.2019 23:00:00 14,2 12,1 13,3 21,0 20,2 3 1 5 3 SW 1023,7 20 0 0,0
13.08.2019 22:00:00 15,3 12,6 14,3 20,9 20,1 3 2 6 3 S 1022,9 20 0 0,0
13.08.2019 21:00:00 16,9 11,8 16,3 20,9 20,2 2 1 11 6 SW 1022,3 20 1 0,0
13.08.2019 20:00:00 18,1 10,9 18,4 20,8 20,2 9 5 16 9 WNW 1021,9 20 30 0,0
13.08.2019 19:00:00 18,7 11,5 20,6 20,7 20,2 9 5 16 9 NW 1021,6 20 0 0,0
13.08.2019 18:00:00 19,1 11,1 22,6 20,6 20,2 6 3 16 9 WNW 1021,7 20 20 0,0
13.08.2019 17:00:00 18,9 9,7 23,1 20,6 20,2 8 4 16 9 WNW 1021,9 20 1 0,0
13.08.2019 16:00:00 18,4 10,2 22,7 20,6 20,2 7 4 15 8 W 1022,2 20 2 0,0
13.08.2019 15:00:00 17,3 12,0 19,7 20,6 20,2 6 3 13 7 WNW 1022,9 20 0 0,0
13.08.2019 14:00:00 16,5 11,6 18,7 20,6 20,2 5 3 9 5 S 1023,4 20 0 0,0
13.08.2019 13:00:00 15,4 12,7 15,3 20,6 20,2 5 3 9 5 SSW 1023,7 20 0 0,2
13.08.2019 12:00:00 15,4 12,3 16,5 20,6 20,2 3 2 10 5 E 1023,7 17 0 0,0
13.08.2019 11:00:00 15,9 12,5 16,6 20,6 20,2 2 1 12 7 W 1023,8 20 0 0,0
13.08.2019 10:00:00 14,8 12,7 14,6 20,7 20,2 5 3 11 6 NNW 1024,1 20 0 0,0
13.08.2019 09:00:00 13,8 12,5 13,9 20,8 20,2 2 1 7 4 S 1024,0 20 0 0,2
13.08.2019 08:00:00 13,4 12,3 13,0 20,8 20,2 0 0 3 2 N 1023,9 20 0 0,0
13.08.2019 07:00:00 13,3 12,5 13,0 20,9 20,3 0 0 11 6 N 1023,4 19 0 0,4
13.08.2019 06:00:00 13,3 12,4 13,1 20,9 20,2 2 1 8 4 W 1023,4 3,9 0 1,0
13.08.2019 05:00:00 13,4 12,5 13,1 21,0 20,2 5 3 10 5 SW 1023,7 6 0 0,4
13.08.2019 04:00:00 13,6 12,5 13,2 21,0 20,3 4 2 16 9 WSW 1024,1 7 0 0,4
13.08.2019 03:00:00 13,8 12,7 13,4 21,1 20,2 8 4 12 7 W 1024,7 6 0 1,4
13.08.2019 02:00:00 14,5 12,7 14,1 21,1 20,2 3 1 6 3 S 1024,8 20 0 0,0
13.08.2019 01:00:00 14,8 11,2 14,3 21,2 20,3 5 3 15 8 SW 1024,7 20 0 0,0
13.08.2019 00:00:00 15,1 12,2 14,4 21,2 20,3 2 1 8 5 E 1024,9 20 0 0,0
12.08.2019 23:00:00 15,5 12,3 14,7 21,2 20,3 3 2 6 3 N 1024,7 20 0 0,0
12.08.2019 22:00:00 15,8 11,2 15,0 21,2 20,3 2 1 8 4 W 1024,1 20 0 0,0
12.08.2019 21:00:00 15,8 12,0 15,4 21,2 20,3 3 1 9 5 N 1023,3 20 0 0,0
12.08.2019 20:00:00 16,1 11,3 15,9 21,2 20,3 5 3 33 18 WNW 1022,8 20 0 0,0
12.08.2019 19:00:00 16,9 12,2 17,5 21,2 20,3 9 5 14 8 NW 1022,3 20 0 0,0
12.08.2019 18:00:00 17,6 12,1 16,4 21,1 20,3 0 0 16 8 N 1022,0 20 0 0,0
12.08.2019 17:00:00 16,1 12,8 15,9 21,1 20,3 16 9 29 15 W 1022,2 12 1 0,0
12.08.2019 16:00:00 18,0 12,4 20,1 21,1 20,3 8 4 14 8 WNW 1022,1 20 0 0,0
12.08.2019 15:00:00 16,9 13,6 18,5 21,1 20,3 4 2 11 6 NW 1022,1 20 0 0,0
12.08.2019 14:00:00 14,7 13,2 14,3 21,1 20,3 7 4 32 18 WNW 1022,6 20 0 0,6
12.08.2019 13:00:00 14,7 13,7 15,4 21,2 20,3 15 8 27 15 WNW 1022,5 6 0 0,2
12.08.2019 12:00:00 14,9 13,4 15,2 21,2 20,3 14 8 23 13 WNW 1022,2 18 0 0,2
12.08.2019 11:00:00 14,6 13,6 14,9 21,3 20,3 12 6 25 14 WNW 1021,6 6 0 0,0
12.08.2019 10:00:00 15,0 14,0 14,5 21,3 20,3 6 3 13 7 W 1020,8 10 0 1,1
12.08.2019 09:00:00 14,9 14,1 15,0 21,4 20,3 5 3 11 6 W 1020,5 2,2 0 0,6
12.08.2019 08:00:00 14,8 14,2 14,6 21,5 20,4 6 3 11 6 WNW 1019,8 5 0 1,8
12.08.2019 07:00:00 14,7 14,1 14,5 21,6 20,3 3 2 19 10 SSW 1019,5 2,0 0 3,8
12.08.2019 06:00:00 15,3 14,7 15,2 21,6 20,3 4 2 9 5 NW 1019,2 3,3 0 4,2
12.08.2019 05:00:00 15,4 14,6 15,0 21,7 20,3 3 2 6 3 W 1018,9 1,8 0 1,3
12.08.2019 04:00:00 15,5 14,5 15,2 21,7 20,3 2 1 10 5 WSW 1019,5 2,4 0 4,0
12.08.2019 03:00:00 15,9 14,9 15,1 21,8 20,3 5 3 10 6 WNW 1019,3 20 0 0,0
12.08.2019 02:00:00 16,2 15,1 15,7 21,9 20,4 6 3 8 5 WNW 1019,8 20 0 0,0
12.08.2019 01:00:00 16,3 15,0 15,9 21,9 20,3 2 1 4 2 W 1020,1 20 0 0,0
12.08.2019 00:00:00 16,6 15,0 16,0 21,9 20,3 0 0 5 3 N 1019,9 20 0 0,0
11.08.2019 23:00:00 16,8 15,0 16,4 21,9 20,3 4 2 4 2 SW 1020,0 20 0 0,0
11.08.2019 22:00:00 17,1 15,3 16,8 21,9 20,3 3 2 5 3 WSW 1019,5 20 0 0,0
11.08.2019 21:00:00 17,9 13,8 17,7 22,0 20,3 3 2 9 5 NNW 1019,0 20 0 0,0
11.08.2019 20:00:00 18,3 14,2 19,2 22,0 20,4 4 2 15 8 N 1018,4 20 0 0,0
11.08.2019 19:00:00 18,2 14,9 18,8 22,0 20,4 8 4 19 10 NW 1018,5 20 0 0,0
11.08.2019 18:00:00 18,5 15,0 20,5 22,0 20,3 8 4 14 7 WNW 1018,3 20 0 0,0
11.08.2019 17:00:00 17,7 14,8 18,2 22,1 20,3 8 4 17 9 WNW 1018,6 20 0 0,0

tt = Température de l'air
td = dewpoint
tt 5cm = Température de l'air 5cm
tt -20cm = Température de l'air -20cm
tt -100cm = Température de l'air -100cm
ff = Vitesse du vent
fx = gusts
dd = Direction du vent
ppp = reduced air pressure
vv = visibility
sd = Ensoleillement
rr = Quantités de précipitations

stations d'obs. à proximité